Miscellaneous Local Product
Issued by NWS Hastings, NE

Home | Current Version | Previous Version | Graphics & Text | Print | Product List | Glossary On
Versions: 1 2 3 4 5 6 7 8 9 10 11 12 13 14 15 16 17 18 19 20 21 22 23 24 25 26 27 28 29 30 31 32 33 34 35 36 37 38 39 40 41 42 43 44 45 46 47 48 49 50
000
AXUS43 KGID 030102
MISGRI

GID CWA HOURLY WEATHER ROUNDUP
NATIONAL WEATHER SERVICE HASTINGS NE
700 PM CST FRI DEC 02 2016

NOTE: "FAIR" INDICATES FEW OR NO CLOUDS BELOW 12,000 FEET WITH NO
SIGNIFICANT WEATHER AND/OR OBSTRUCTIONS TO VISIBILITY.

...SOUTH CENTRAL NEBRASKA...

CITY           SKY/WX    TMP DP  RH WIND       PRES   REMARKS
GRAND ISLAND   CLOUDY    30  24  78 CALM      30.29S
HASTINGS       CLEAR     30  23  75 CALM      30.29S
KEARNEY        CLEAR     28  18  64 CALM      30.27S
ORD            CLEAR     25  18  74 CALM      30.26S
YORK           CLOUDY    34  25  69 CALM      30.31R
AURORA         CLOUDY    32  24  73 CALM      30.29S
LEXINGTON      CLEAR     26  22  85 CALM      30.25F
HOLDREGE       CLOUDY    28  21  76 E3        30.27R
HEBRON         CLEAR     31  24  74 CALM      30.31R

...NEBRASKA PANHANDLE...

CITY           SKY/WX    TMP DP  RH WIND       PRES   REMARKS
CHADRON        PTCLDY    25  16  68 CALM      30.20R
ALLIANCE       CLOUDY    29  19  66 SW9       30.19S WCI  20
SCOTTSBLUFF    PTCLDY    31  19  61 S3        30.19F
SIDNEY         CLOUDY    24  18  77 SW7       30.20S WCI  16

...WESTERN AND NORTH CENTRAL NEBRASKA...

CITY           SKY/WX    TMP DP  RH WIND       PRES   REMARKS
VALENTINE      CLEAR     26  21  81 SW5       30.24S WCI  20
AINSWORTH      CLEAR     28  23  82 CALM      30.25R
ONEILL         PTCLDY    29  26  86 SE3       30.28S
BROKEN BOW     CLEAR     25  21  85 CALM      30.24S
IMPERIAL       PTCLDY    31  22  69 CALM      30.23R
NORTH PLATTE   CLEAR     25  18  74 E3        30.24S
MCCOOK         CLEAR     31  20  63 E3        30.25R

...EASTERN NEBRASKA...

CITY           SKY/WX    TMP DP  RH WIND       PRES   REMARKS
NORFOLK        CLEAR     30  24  78 CALM      30.30S
SO SIOUX CITY  CLOUDY    36  31  82 CALM      30.33S
TEKAMAH        CLOUDY    36  29  75 NW7       30.34R WCI  30
COLUMBUS       CLEAR     27  21  80 CALM      30.32S
ALBION         CLEAR     28  24  84 SE3       30.30S
OMAHA EPPLEY   CLOUDY    36  28  73 CALM      30.34R
OFFUTT AFB     CLEAR     26  26  99 N2        30.33R
MILLARD        CLEAR     33  28  82 CALM      30.34R
LINCOLN        CLEAR     30  25  81 N6        30.33S WCI  24
NEBRASKA CITY  CLOUDY    35  25  68 CALM      30.32R
BEATRICE       CLEAR     32  26  77 NE5       30.32R WCI  27
FALLS CITY       N/A    N/A N/A N/A MISG      30.32R

...NORTHERN KANSAS...

CITY           SKY/WX    TMP DP  RH WIND       PRES   REMARKS
GOODLAND       CLOUDY    34  17  50 NE6       30.23R WCI  29
HILL CITY      CLEAR     30  20  66 E8        30.26S WCI  22
NORTON         MOCLDY    30  18  59 CALM      30.26
PHILLIPSBURG   CLEAR     32  21  64 CALM      30.28S
SMITH CENTER   CLEAR     30  25  80 NE7       30.29S WCI  23
BELOIT         CLEAR     30  23  74 CALM      30.28S
HAYS           CLEAR     31  22  69 NE7       30.25F WCI  24
RUSSELL        CLEAR     32  23  69 NE12      30.24F WCI  23
CONCORDIA      CLEAR     34  25  69 NE6       30.29S WCI  29
SALINA         CLEAR     36  23  59 NE3       30.29R
TOPEKA         CLEAR     37  26  64 NE3       30.31R



USA.gov is the U.S. government's official web portal to all federal, state and local government web resources and services.